Zurück zum Katalog

NOAA 17 DEB

AktivPO
NORAD 48737·DEBRIS·🇺🇸 United States

Gestartet Jun 24, 2002 von Vandenberg Space Force Base

Loading…

Nächste Überflüge (nächste 24 Stunden)

TLE

AktuellSource: Space-Track

Epoche: Sep 14, 2026, 11:14 UTC

1 48737U 02032BW  26257.46844275  .00166505  00000-0  40869-2 0  9990
2 48737  98.6937 339.4026 0008742 269.4440  90.5800 15.39990843289866

Verfolge NOAA 17 DEB in Echtzeit mit AllMySat

Download on the App Store